Location: Chippewa Lake
(41.0698°N, 81.9010°W)
Time: 21:47:28
(UTC+00:00)

USA 81 - Pass Details

Date: 09 May 2021
Orbit: 784 x 789 km, 85.0° (Epoch: 12 June)

Event Time Altitude Azimuth Distance (km) Brightness Sun altitude
Rises 06:18:00 0° 357° (N) 3,294 8.3 -30.2°
Reaches altitude 10° 06:20:23 10° 0° (N) 2,360 7.4 -30.1°
Enters shadow 06:25:04 63° 41° (NE) 879 4.4 -29.8°
